Flag for Canada Weather past 2 weeks in Fort St. John, British Columbia, Canada

Now
61 °F

Partly sunny.


Feels Like: 61 °F
Forecast: 54 / 69 °F
Wind: 15 mph from Southwest

Location: Fort St John

Current Time: Aug 28, 2015 at 10:22:00 AM

Latest Report: Aug 28, 2015 at 10:00 AM


Visibility: 15 mi

Pressure: 29.70 "Hg (27.38 "Hg at 689m altitude)

Humidity: 52%

Dew point: 43 °F

Location of Fort St. JohnLocation

Historic Weather in Fort St. John — Graph

°F

Fort St. John temperature yesterday

Maximum temperature yesterday: 77 °F (at 2:00 PM)
Minimum temperature yesterday: 45 °F (at 4:00 AM)
Average temperature yesterday: 62 °F

Past Weeks' High & Low Weather Summary

 TemperatureHumidityPressure
High77 °F (Aug 27, 2:00 PM)100% (Aug 14, 6:00 AM)30.29 "Hg (Aug 14, 6:00 AM)
Low34 °F (Aug 22, 6:00 AM)19% (Aug 27, 2:00 PM)29.67 "Hg (Aug 19, 2:00 AM)
Average56 °F61%30.02 "Hg
* Reported Aug 13 9:00 AM — Aug 28 9:00 AM, Fort St. John, Weather by CustomWeather, © 2015

Note: Actual official high and low records may vary slightly from our data, if they occured in-between our weather recording intervals... More about our weather records

Advertising

Fort St. John weather history for previous 24 hours

 ConditionsComfort  
Time TempWeatherWind HumidityBarometerVisibility
9:00 AM
Fri, Aug 28
59 °FPartly sunny.15 mph51%29.69 "Hg15 mi
8:00 AM57 °FPartly sunny.17 mph51%29.69 "Hg15 mi
7:00 AM57 °FBroken clouds.14 mph51%29.69 "Hg15 mi
6:00 AM57 °FPartly cloudy.15 mph51%29.69 "Hg15 mi
5:00 AM57 °FPassing clouds.17 mph51%29.68 "Hg15 mi
4:00 AM59 °FPassing clouds.17 mph48%29.69 "Hg15 mi
3:00 AM59 °FPassing clouds.15 mph48%29.69 "Hg15 mi
2:00 AM61 °FOvercast.14 mph42%29.68 "Hg15 mi
1:00 AM63 °FOvercast.13 mph42%29.67 "Hg15 mi
12:00 AM63 °FOvercast.13 mph42%29.67 "Hg15 mi
11:00 PM
Thu, Aug 27
61 °FOvercast.9 mph45%29.69 "Hg15 mi
10:00 PM63 °FPassing clouds.8 mph39%29.70 "Hg15 mi
9:00 PM63 °FPartly sunny.9 mph37%29.71 "Hg15 mi
8:00 PM66 °FPartly sunny.14 mph30%29.71 "Hg15 mi
7:00 PM70 °FBroken clouds.15 mph25%29.71 "Hg15 mi
6:00 PM72 °FPartly sunny.16 mph23%29.72 "Hg15 mi
5:00 PM75 °FScattered clouds.20 mph22%29.71 "Hg15 mi
4:00 PM75 °FScattered clouds.25 mph22%29.72 "Hg15 mi
3:00 PM75 °FPassing clouds.26 mph22%29.72 "Hg15 mi
2:00 PM77 °FPassing clouds.23 mph19%29.72 "Hg15 mi
1:00 PM75 °FPassing clouds.25 mph22%29.74 "Hg15 mi
12:00 PM73 °FPassing clouds.24 mph29%29.78 "Hg15 mi
11:00 AM68 °FPassing clouds.15 mph43%29.81 "Hg15 mi
10:00 AM64 °FPassing clouds.17 mph49%29.84 "Hg15 mi
Weather by CustomWeather, © 2015

See weather overviewHow to use our weather pages